This is the latest recevied weather packets stored in our database for station/object DG8SF-13. If no packets are shown the sender has not sent any weather packets the latest 10 day(s).
| Time | Temp. | Humidity | Pressure | Rain* | Wind** | Luminosity | Snow |
|---|---|---|---|---|---|---|---|
| 1787676509 | 18.89° C | 77% | 1014.6 hPa | 0 mm | - | - | - |
| 1787676198 | 18.89° C | 76% | 1014.6 hPa | 0 mm | - | - | - |
| 1787675884 | 19.44° C | 76% | 1014.4 hPa | 0 mm | - | - | - |
| 1787675576 | 18.89° C | 78% | 1014.3 hPa | 0 mm | - | - | - |
| 1787675260 | 18.89° C | 79% | 1014.1 hPa | 0 mm | - | - | - |
| 1787674950 | 18.89° C | 80% | 1014.2 hPa | 0 mm | - | - | - |
| 1787674638 | 18.89° C | 79% | 1014.3 hPa | 0 mm | - | - | - |
| 1787674326 | 18.89° C | 77% | 1014.4 hPa | 0 mm | - | - | - |
| 1787674001 | 19.44° C | 75% | 1014.2 hPa | 0 mm | - | - | - |
| 1787673690 | 19.44° C | 76% | 1014.4 hPa | 0 mm | - | - | - |
| 1787673365 | 20° C | 74% | 1014.3 hPa | 0 mm | - | - | - |
| 1787673054 | 19.44° C | 71% | 1014.4 hPa | 0 mm | - | - | - |
| 1787672728 | 19.44° C | 70% | 1014.3 hPa | 0 mm | - | - | - |
| 1787672405 | 19.44° C | 71% | 1014.3 hPa | 0 mm | - | - | - |
| 1787672080 | 20° C | 69% | 1014.2 hPa | 0 mm | - | - | - |
| 1787671771 | 20° C | 67% | 1014.2 hPa | 0 mm | - | - | - |
| 1787671456 | 20.56° C | 67% | 1014.2 hPa | 0 mm | - | - | - |
| 1787671147 | 20.56° C | 69% | 1014.3 hPa | 0 mm | - | - | - |
| 1787670821 | 20.56° C | 67% | 1014.2 hPa | 0 mm | - | - | - |
| 1787670486 | 20° C | 70% | 1014.1 hPa | 0 mm | - | - | - |
| 1787670172 | 20° C | 69% | 1014.2 hPa | 0 mm | - | - | - |
| 1787669862 | 20° C | 70% | 1014.2 hPa | 0 mm | - | - | - |
| 1787669561 | 20° C | 69% | 1014.1 hPa | 0 mm | - | - | - |
| 1787669238 | 20° C | 68% | 1014.1 hPa | 0 mm | - | - | - |
| 1787668925 | 20.56° C | 68% | 1014 hPa | 0 mm | - | - | - |
* Rain latest hour (hover to see other rain measurements)
** Current wind speed in m/s (hover to see current wind gust speed)